SCP
0 0 0 0 0 0 0 0 0 0 0 0 0 0 0 0 0 0 0 1 1 2 2 1 1 1 1 1 2 2 2 2 1 1 1 1 1 1 1 1 1 1 1 1 1 1 1 1 1
0 0 0 0 0 0 0 0 0 0 0 0 0 0 0 0 0 0 1 1 1 2 2 1 1 1 2 2 1 1 1 1 1 1 1 1 1 1 1 1 1 1 1 1 1 1 1 1 1
0 0 0 0 0 0 0 0 0 0 0 0 0 0 0 0 0 0 1 1 2 2 2 2 2 2 2 2 1 1 1 1 1 1 1 1 1 1 1 1 1 1 1 1 1 1 0 0 0
0 0 0 0 0 0 0 0 0 0 0 0 0 0 0 0 0 1 1 1 2 2 1 1 2 2 2 1 1 1 1 1 1 1 1 1 1 1 1 1 1 1 1 1 1 0 0 0 0
0 0 0 0 0 -0 0 0 0 0 0 0 0 0 0 0 1 1 1 1 1 1 1 1 2 2 1 1 1 1 1 1 1 1 1 1 1 1 1 1 1 1 1 1 0 0 0 0 0
0 0 0 0 0 -0 -0 0 0 0 0 0 0 0 0 0 1 1 1 1 1 1 1 1 2 1 1 1 1 1 1 1 1 1 0 0 0 1 0 0 0 0 1 1 0 0 0 0 0
0 0 0 0 -0 -0 0 0 0 0 0 0 0 0 0 0 1 1 1 1 1 1 1 1 1 1 1 1 1 1 1 1 1 0 0 0 0 0 0 0 0 0 0 1 1 0 0 0 0
0 0 0 0 -0 -0 0 0 0 0 0 0 0 0 0 0 1 1 1 1 1 1 1 1 1 1 1 1 1 1 1 1 0 0 0 0 0 0 0 0 0 0 0 1 1 1 0 0 0
0 0 0 0 0 -0 0 0 0 0 0 0 0 0 0 1 1 1 1 1 1 1 1 1 1 1 1 1 0 1 0 0 0 0 0 0 0 0 0 0 0 0 0 1 1 1 1 1 1
0 0 0 0 0 0 0 0 0 0 0 0 0 1 1 1 1 1 1 1 1 1 1 1 1 1 1 1 1 1 1 0 0 0 0 0 0 0 0 0 0 0 0 1 1 1 1 1 1
0 0 0 0 0 0 -0 0 0 0 0 0 0 1 2 2 1 1 1 1 1 1 1 1 1 1 1 1 1 1 1 0 0 0 0 0 0 0 0 0 0 0 0 0 0 0 0 0 0
0 0 0 0 0 0 0 0 0 0 0 0 1 2 2 2 1 1 1 0 0 1 1 1 1 1 1 1 1 1 1 0 0 0 0 0 0 0 0 0 0 0 0 0 0 0 0 0 0
0 0 0 0 0 0 0 0 0 0 0 0 1 2 3 2 2 1 1 1 0 1 1 1 1 1 1 1 1 1 1 1 0 0 0 0 0 0 0 0 0 0 0 0 0 0 0 0 0
0 0 0 0 0 0 0 0 0 0 0 1 1 2 3 2 2 2 1 1 1 1 1 1 1 1 1 1 1 1 1 1 0 0 0 0 0 0 0 0 0 0 0 0 0 0 0 0 0
0 0 0 0 0 0 0 0 0 0 1 1 2 2 2 2 2 2 2 1 1 1 1 1 1 1 1 1 1 1 1 1 1 1 0 0 0 0 0 0 0 0 0 0 0 0 0 0 0
0 0 0 0 0 0 0 0 1 1 1 1 2 2 2 2 2 2 2 2 1 1 1 1 1 1 1 1 1 1 1 1 1 1 1 1 0 0 0 0 0 0 0 0 0 0 0 0 0
0 0 0 0 0 0 0 1 1 2 2 2 2 1 1 1 1 2 2 2 2 2 1 1 2 2 1 1 1 1 1 1 1 1 1 1 1 1 1 1 1 0 1 0 0 0 0 0 0
0 0 0 0 0 0 0 1 1 2 2 2 2 2 1 1 1 1 2 3 3 3 2 2 2 2 2 1 1 1 1 1 1 1 1 1 1 1 1 1 1 1 1 1 0 0 0 0 0
0 0 0 0 0 0 0 1 2 2 2 2 2 2 2 2 2 2 2 3 3 3 3 3 3 3 3 2 2 2 2 1 1 1 1 1 1 1 1 1 1 1 1 1 0 0 0 0 0
0 0 0 0 0 0 1 2 2 2 2 2 3 3 4 4 4 3 2 3 3 3 3 3 4 4 4 4 4 4 3 2 1 1 1 1 1 1 1 1 1 1 1 1 0 0 0 0 0
0 0 0 0 0 0 0 1 2 3 3 3 4 4 5 5 5 4 3 3 3 4 4 4 4 4 4 5 5 5 4 3 2 1 1 1 1 1 1 1 1 1 1 0 0 0 0 0 0
0 0 0 0 0 0 0 1 2 2 3 3 4 4 5 5 5 5 4 3 4 4 4 5 5 5 5 5 5 5 5 4 3 2 1 0 0 1 1 1 1 0 0 0 0 0 0 0 0
0 0 0 0 0 0 0 1 1 2 2 3 3 4 4 5 5 5 4 4 4 5 5 6 5 5 6 6 5 5 4 3 2 1 1 0 0 0 0 0 0 0 0 0 0 0 0 0 0
0 0 0 0 0 0 0 1 1 2 2 3 3 3 3 4 4 4 4 4 4 4 5 5 6 6 7 6 5 4 3 2 1 1 0 0 0 0 0 0 0 0 0 0 0 0 0 0 0
0 0 0 0 0 0 0 1 1 2 2 2 2 2 2 3 3 3 3 3 3 3 4 5 5 6 6 5 4 3 2 1 1 0 0 0 0 0 0 0 0 0 0 0 0 0 0 0 0
0 0 0 0 0 0 1 1 2 2 2 2 2 1 1 2 2 2 2 2 2 2 2 3 4 4 4 3 2 1 1 1 0 0 0 0 0 0 0 0 0 0 0 0 0 0 0 0 0
0 0 0 0 0 0 1 1 1 1 1 1 1 1 1 1 1 1 1 1 1 1 1 1 2 2 2 1 1 0 0 0 0 0 0 0 0 0 0 0 0 0 0 0 0 0 0 0 0
0 0 0 0 0 0 1 1 1 1 1 1 1 1 0 0 0 0 0 0 0 0 0 0 1 1 0 0 0 0 0 0 0 0 0 0 0 0 0 0 0 0 0 0 0 0 0 0 0
0 0 0 0 0 0 0 1 1 1 1 1 1 0 0 0 0 0 0 0 0 0 0 0 0 0 0 0 0 0 0 0 0 0 0 0 0 0 0 0 0 0 0 0 0 0 0 0 0
0 0 0 0 0 0 0 1 1 1 1 1 1 0 0 0 0 0 0 0 0 0 0 0 0 0 0 0 0 0 0 0 0 0 0 0 0 0 0 0 0 0 0 0 0 0 0 0 0
Wind_Speed
7 1 3 3 6 5 3 4 2 5 5 3 1 3 5 4 5 4 2 11 16 15 13 16 17 17 18 19 19 19 19 19 18 18 17 17 16 16 15 15 15 15 15 15 14 14 14 13 13
2 1 3 5 5 1 5 3 2 4 4 3 2 2 2 1 2 5 5 10 16 16 12 13 17 17 18 19 19 19 19 19 18 17 17 16 15 15 14 14 14 14 14 14 13 13 12 12 11
2 2 5 5 3 5 4 2 2 6 5 2 1 2 1 2 5 6 6 14 15 14 11 13 19 17 18 19 19 19 19 18 17 16 16 15 15 14 13 14 13 13 12 12 12 11 11 10 10
2 5 5 4 5 6 4 4 5 7 6 2 1 2 2 1 6 7 14 15 15 13 11 13 18 17 17 18 18 18 18 17 17 16 15 14 14 13 13 13 12 12 11 11 10 10 9 9 8
4 5 3 2 7 5 4 4 3 5 4 2 1 1 1 4 7 14 16 16 15 12 9 12 16 16 16 17 17 17 17 16 15 15 14 13 12 11 11 11 11 10 10 9 9 8 7 7 7
5 5 4 6 8 5 3 3 2 3 3 3 1 2 1 3 10 13 13 12 12 13 10 11 16 18 17 17 16 16 15 14 14 13 13 12 11 10 9 9 9 8 8 7 7 6 5 5 5
5 5 7 7 6 6 4 3 1 2 4 3 3 4 1 3 6 10 10 10 9 10 10 9 10 13 16 15 15 15 14 13 13 12 12 11 10 10 9 8 8 7 6 6 5 4 4 3 3
4 5 5 6 6 7 2 1 1 1 4 2 4 6 5 6 8 9 10 9 9 9 9 8 7 7 8 9 15 15 14 13 13 13 12 12 11 10 9 7 6 6 5 5 4 3 2 2 2
4 3 6 7 7 5 1 0 2 2 2 2 2 5 6 13 13 12 11 10 10 10 9 8 8 7 7 7 11 12 13 12 12 11 12 9 4 4 5 6 6 6 5 4 3 3 2 1 1
5 4 7 5 5 3 1 1 2 3 5 3 1 2 13 17 15 15 15 15 14 14 12 8 9 9 8 7 6 5 5 6 6 5 6 4 3 3 4 4 7 6 5 4 3 3 1 0 1
5 7 5 5 5 3 3 3 2 2 7 6 5 9 18 18 15 14 15 15 15 13 13 11 10 9 9 5 5 4 3 4 4 5 5 4 3 2 2 1 1 2 2 0 1 1 1 0 1
3 6 5 5 4 3 4 3 3 6 11 6 7 14 20 19 18 16 15 14 12 12 12 12 11 9 8 5 5 5 4 4 4 4 5 4 3 2 2 1 1 1 0 0 0 0 1 0 1
5 6 6 7 7 5 5 6 5 9 11 5 6 14 20 19 16 12 10 10 11 13 12 12 12 10 9 6 6 6 5 5 5 5 5 5 4 3 2 2 1 2 1 1 1 0 0 0 0
5 7 8 7 7 5 7 7 4 11 6 4 8 14 17 17 15 12 11 12 13 14 13 12 12 11 9 7 6 6 5 5 4 4 6 6 4 4 3 2 2 2 2 2 1 1 1 1 1
3 4 6 6 7 6 5 5 7 10 3 6 9 11 13 13 14 15 16 15 14 14 12 12 12 11 10 8 7 5 5 5 4 4 5 6 5 4 4 3 2 2 2 2 2 2 2 2 2
2 1 3 6 3 4 8 5 8 5 6 7 8 10 11 11 13 13 13 11 11 10 11 11 12 11 10 7 6 4 4 5 4 4 4 6 6 6 4 3 3 3 3 3 2 2 2 2 3
3 1 3 5 2 2 4 5 6 1 6 7 8 10 10 9 10 10 11 12 11 11 11 11 10 11 10 8 6 4 4 4 4 4 4 5 6 6 5 3 3 3 3 2 3 2 2 2 3
3 2 2 4 3 1 2 4 7 3 6 7 7 8 9 11 11 9 9 10 10 10 10 11 10 10 9 7 5 4 4 3 2 3 3 4 4 5 5 4 4 4 3 2 2 3 3 2 2
2 2 4 6 4 1 2 3 7 4 1 4 5 5 7 9 5 4 5 7 8 8 10 11 11 10 9 7 6 5 4 3 2 2 3 4 4 5 5 4 4 4 3 4 4 3 3 3 2
3 3 4 6 3 1 1 3 5 7 4 1 1 1 0 1 2 1 3 5 7 8 8 9 10 10 9 7 5 4 5 4 3 2 3 3 4 5 5 5 5 5 4 4 3 3 3 2 2
3 4 4 4 6 4 2 5 6 6 8 10 10 8 7 6 4 3 3 2 3 5 6 6 7 8 9 9 7 6 5 4 3 2 2 3 4 4 4 5 5 5 4 4 3 3 4 3 2
4 6 5 3 2 4 2 2 3 4 8 11 11 11 11 9 8 7 6 5 3 1 4 6 7 8 9 10 10 11 7 5 4 4 4 5 5 5 5 6 6 6 5 5 4 3 3 4 3
7 4 2 1 2 1 2 4 3 2 5 8 10 12 11 11 11 10 10 8 6 4 3 5 7 8 8 8 9 8 7 5 5 6 7 6 6 7 7 7 7 7 6 6 6 5 5 3 3
4 3 4 5 4 0 1 5 1 2 3 5 9 11 12 12 12 12 11 11 10 8 7 6 8 7 8 8 8 8 9 9 8 7 7 6 6 7 8 8 8 8 7 7 7 7 8 6 6
4 5 4 4 3 2 1 5 3 5 7 8 9 10 11 12 12 12 13 13 12 11 9 8 9 8 8 9 8 9 9 9 9 8 8 8 6 6 7 7 8 7 7 8 8 8 8 7 8
5 8 7 5 4 1 3 4 4 7 8 9 9 9 10 11 11 13 13 12 12 13 11 10 10 10 10 10 10 10 10 8 7 9 8 8 7 7 8 8 9 9 8 9 8 8 7 7 8
6 4 6 7 3 3 2 4 5 6 8 8 8 9 10 10 12 12 13 13 13 14 13 12 12 12 12 12 13 12 12 11 11 11 10 8 8 8 9 9 10 9 9 9 8 7 7 7 7
4 7 6 6 5 3 2 2 2 6 6 6 6 6 7 9 11 11 12 13 13 13 13 14 14 14 13 13 12 11 12 13 11 11 11 11 10 9 10 10 10 10 9 9 8 7 6 7 5
3 4 5 5 5 6 4 1 3 5 8 8 6 6 7 8 9 10 10 11 12 13 13 13 13 14 14 13 13 13 13 13 12 12 11 11 10 10 10 10 10 10 9 8 7 7 6 6 5
4 3 4 5 2 4 5 2 3 6 8 8 8 7 7 8 9 10 10 11 12 13 13 13 13 14 13 13 13 13 13 13 12 12 11 11 11 10 10 10 10 9 9 7 7 7 6 5 4
Wind_Direction
301 330 114 69 46 40 296 270 278 338 332 315 241 151 157 160 179 198 114 133 132 141 150 151 151 148 142 136 131 128 127 126 126 126 127 127 126 126 125 123 121 119 117 116 115 115 114 114 115
292 123 70 59 77 3 281 264 331 331 301 318 21 67 76 77 67 113 127 137 137 141 146 152 152 149 144 139 135 133 132 131 130 130 130 130 129 128 127 125 123 121 119 117 117 118 118 119 120
289 70 86 77 131 194 245 272 317 315 301 302 360 64 116 178 143 150 147 139 136 142 145 155 154 150 145 142 139 137 137 136 135 135 135 134 133 132 130 129 127 125 122 121 121 123 123 122 123
76 55 61 97 225 223 227 281 313 319 318 316 119 91 65 61 154 150 140 141 137 143 148 156 155 151 147 145 143 142 142 141 141 140 139 138 138 136 135 134 133 131 128 126 126 127 126 124 124
62 89 98 215 241 238 230 260 279 298 301 315 123 137 28 19 112 135 143 145 144 145 148 156 155 152 151 149 148 147 146 146 145 144 143 142 141 141 140 140 140 138 136 133 133 134 130 126 126
64 88 144 224 246 246 233 239 286 300 304 320 119 124 354 91 132 146 146 144 145 147 148 155 159 158 156 155 153 151 150 150 148 147 146 146 146 145 145 147 148 148 146 142 141 143 138 129 128
121 136 192 211 240 256 238 199 235 298 308 284 147 127 333 143 152 143 135 130 135 145 149 153 160 163 162 159 157 155 154 153 151 151 151 152 153 154 157 158 160 161 160 157 156 160 152 139 135
130 131 202 208 218 251 206 160 208 276 280 272 135 154 203 178 146 129 120 124 136 148 155 156 155 154 156 159 164 162 160 158 157 158 160 162 165 167 171 171 176 178 181 181 180 184 182 166 165
86 109 216 209 199 230 165 87 291 270 275 283 187 186 178 140 141 133 132 139 152 161 165 162 156 152 152 156 169 166 166 164 164 166 169 165 160 166 176 185 194 199 205 210 212 217 223 222 236
106 184 229 220 205 232 305 269 291 317 311 287 360 105 133 143 154 156 159 164 169 174 176 172 165 161 158 165 159 153 157 159 158 158 163 150 148 168 181 202 211 218 223 233 241 245 259 315 328
167 201 230 245 243 255 280 266 219 226 269 241 206 163 149 158 167 172 174 175 176 176 177 178 173 168 166 160 152 153 148 152 154 158 154 145 145 157 170 147 245 255 251 271 358 2 14 24 237
191 242 233 253 242 233 235 244 233 218 240 240 196 166 161 171 177 181 181 181 173 174 182 180 178 173 171 159 159 160 159 162 163 162 156 151 154 169 177 180 207 222 173 165 87 9 323 290 252
224 259 252 247 260 251 244 240 240 252 254 250 188 168 172 179 182 182 181 180 176 179 181 182 182 179 174 163 165 171 173 173 170 166 168 165 168 181 192 199 202 212 191 185 203 233 266 43 161
234 237 261 268 256 239 226 250 214 258 254 194 172 173 178 182 179 176 178 184 186 186 184 180 183 182 176 174 172 172 176 173 170 176 178 175 173 179 188 199 199 204 192 185 175 162 136 93 98
273 267 284 255 232 232 185 261 229 243 194 173 175 172 176 183 183 188 188 189 189 187 182 181 183 182 181 179 177 170 173 170 178 181 181 182 178 181 184 189 193 190 164 148 127 112 97 93 86
336 288 284 279 223 205 149 233 256 241 168 180 179 177 181 187 191 195 191 189 187 182 180 182 185 182 184 181 175 168 167 173 183 178 181 186 181 178 176 178 186 168 145 140 138 121 95 80 81
7 283 256 297 307 142 159 227 272 214 174 191 188 187 187 189 195 195 191 186 184 182 179 180 183 178 181 177 165 159 156 170 174 169 176 181 178 175 168 169 165 147 137 137 141 110 111 108 99
250 263 302 296 306 54 186 246 284 258 192 203 200 195 192 197 203 194 187 182 180 179 179 180 180 174 170 166 153 147 142 148 152 160 167 160 163 163 154 150 146 140 133 124 119 110 81 87 100
224 270 291 276 278 288 270 298 317 325 225 217 204 201 203 210 202 173 172 171 175 178 182 182 178 174 168 170 169 161 156 137 129 124 137 143 147 149 146 147 138 137 139 140 132 112 96 70 54
229 275 290 293 305 239 328 10 5 28 26 32 148 154 273 15 32 78 152 161 172 182 184 183 178 171 173 173 158 135 124 117 106 89 81 101 134 142 145 145 140 134 128 124 125 124 118 84 41
228 221 245 276 333 10 71 20 25 30 44 49 49 51 48 51 48 34 47 89 137 171 177 179 173 167 165 153 132 121 107 103 110 102 86 63 79 94 111 122 122 118 119 125 116 117 127 127 72
257 235 222 259 358 315 54 66 360 27 46 46 44 43 40 39 39 36 34 39 48 153 157 155 155 154 152 150 154 153 152 154 145 131 108 85 73 80 89 97 100 97 95 99 93 85 102 122 126
219 232 212 250 191 313 18 110 317 21 53 46 44 44 40 38 42 41 38 37 35 42 98 128 132 133 140 147 153 146 136 128 117 112 106 89 73 66 72 82 87 86 83 83 80 79 76 80 103
199 63 51 48 82 29 296 122 12 26 52 56 49 45 40 40 40 40 39 40 38 42 62 89 105 110 121 126 128 130 131 128 126 120 113 97 82 72 68 74 77 79 81 80 79 78 77 77 79
125 96 37 15 37 244 10 93 75 56 66 72 62 50 44 42 42 39 37 36 36 41 52 73 89 91 93 100 102 106 114 118 118 116 108 101 89 80 75 78 80 80 81 79 79 79 76 76 80
169 144 156 179 193 268 32 90 87 77 75 73 66 57 51 47 45 44 40 39 39 40 46 62 76 79 81 86 86 87 92 91 93 92 96 95 91 86 83 81 80 78 79 80 79 79 79 79 81
140 173 163 130 134 88 77 104 112 96 82 72 65 58 51 49 49 47 44 42 44 44 44 53 65 69 70 76 79 79 82 86 89 89 87 86 86 88 82 80 79 75 74 75 78 78 76 79 79
125 137 100 110 132 120 105 114 129 143 126 104 82 72 63 58 56 54 51 50 50 51 51 53 59 64 64 68 74 81 82 84 86 86 84 82 80 80 81 78 77 74 70 71 75 75 71 76 70
53 67 89 98 128 137 144 188 334 163 147 133 112 88 75 68 66 65 62 60 59 57 58 60 63 67 68 69 74 76 77 79 80 80 80 83 81 78 78 77 74 72 69 68 73 71 66 70 62
83 90 123 130 130 119 126 115 20 110 117 119 111 96 84 78 73 70 69 68 65 63 62 63 64 68 70 72 74 75 75 77 78 78 79 82 82 78 78 79 77 74 71 67 69 67 59 59 53